14 | 04 | 2021

Klimadaten

Klimadaten von der Klimastation Reinstorf   

Datum Zeit   Temp. A. Temp. A. min Temp. A. max Feuchte I. Feuchte A. Luftdruck Regen Wind Richtung Richtung Sonnenschein ET UV Solar Taupunkt Windchill Windböen
13.04.21 01:00:00 22,9 °C 1,4 °C 1,3 °C 1,7 °C 32,00% 83,00% 1026,0 hPa 0,0 l/m² 1,6 km/h (1 Bft) SW 225 ° 0 min 0,000 mm 0,0 UV-I 0 W/m² -1,2 °C 1,4 °C 6,4 km/h (2 Bft)
13.04.21 01:30:00 22,0 °C 1,3 °C 1,3 °C 1,6 °C 32,00% 84,00% 1025,9 hPa 0,0 l/m² 3,2 km/h (1 Bft) SW 225 ° 0 min 0,000 mm 0,0 UV-I 0 W/m² -1,1 °C 1,3 °C 9,7 km/h (2 Bft)
13.04.21 02:00:00 21,3 °C 1,4 °C 1,3 °C 1,6 °C 33,00% 84,00% 1025,8 hPa 0,0 l/m² 3,2 km/h (1 Bft) SW 225 ° 0 min 0,000 mm 0,0 UV-I 0 W/m² -1,0 °C 1,4 °C 11,3 km/h (2 Bft)
13.04.21 02:30:00 20,7 °C 0,9 °C 0,9 °C 1,4 °C 33,00% 86,00% 1025,7 hPa 0,0 l/m² 1,6 km/h (1 Bft) SW 225 ° 0 min 0,000 mm 0,0 UV-I 0 W/m² -1,2 °C 0,9 °C 8,0 km/h (2 Bft)
13.04.21 03:00:00 20,2 °C 1,2 °C 0,9 °C 1,3 °C 34,00% 85,00% 1025,6 hPa 0,0 l/m² 3,2 km/h (1 Bft) SW 225 ° 0 min 0,000 mm 0,0 UV-I 0 W/m² -1,0 °C 1,2 °C 14,5 km/h (3 Bft)
13.04.21 03:30:00 19,8 °C 0,9 °C 0,9 °C 1,2 °C 34,00% 86,00% 1025,8 hPa 0,0 l/m² 3,2 km/h (1 Bft) W-SW 247 ° 0 min 0,000 mm 0,0 UV-I 0 W/m² -1,2 °C 0,9 °C 11,3 km/h (2 Bft)
13.04.21 04:00:00 19,4 °C 1,1 °C 0,9 °C 1,1 °C 34,00% 86,00% 1025,7 hPa 0,0 l/m² 4,8 km/h (1 Bft) W-SW 247 ° 0 min 0,000 mm 0,0 UV-I 0 W/m² -1,0 °C -0,2 °C 11,3 km/h (2 Bft)
13.04.21 04:30:00 19,4 °C 0,9 °C 0,9 °C 1,1 °C 34,00% 87,00% 1025,7 hPa 0,0 l/m² 4,8 km/h (1 Bft) W-SW 247 ° 0 min 0,000 mm 0,0 UV-I 0 W/m² -1,0 °C -0,5 °C 12,9 km/h (3 Bft)
13.04.21 05:00:00 19,4 °C 0,8 °C 0,7 °C 1,0 °C 34,00% 88,00% 1025,6 hPa 0,0 l/m² 4,8 km/h (1 Bft) W-SW 247 ° 0 min 0,000 mm 0,0 UV-I 0 W/m² -1,0 °C -0,6 °C 11,3 km/h (2 Bft)
13.04.21 05:30:00 19,2 °C 0,6 °C 0,6 °C 0,8 °C 34,00% 89,00% 1025,6 hPa 0,0 l/m² 4,8 km/h (1 Bft) W-SW 247 ° 0 min 0,000 mm 0,0 UV-I 0 W/m² -1,0 °C -0,8 °C 9,7 km/h (2 Bft)
13.04.21 06:00:00 18,9 °C 0,5 °C 0,4 °C 0,7 °C 34,00% 90,00% 1025,9 hPa 0,0 l/m² 4,8 km/h (1 Bft) W-SW 247 ° 0 min 0,000 mm 0,0 UV-I 0 W/m² -0,9 °C -0,9 °C 11,3 km/h (2 Bft)
13.04.21 06:30:00 18,8 °C 0,5 °C 0,5 °C 0,6 °C 34,00% 90,00% 1025,8 hPa 0,0 l/m² 4,8 km/h (1 Bft) W-SW 247 ° 0 min 0,000 mm 0,0 UV-I 2 W/m² -0,9 °C -0,9 °C 12,9 km/h (3 Bft)
13.04.21 07:00:00 18,7 °C 0,6 °C 0,5 °C 0,6 °C 35,00% 90,00% 1026,2 hPa 0,0 l/m² 4,8 km/h (1 Bft) W-SW 247 ° 0 min 0,000 mm 0,0 UV-I 0 W/m² -0,8 °C -0,8 °C 12,9 km/h (3 Bft)
13.04.21 07:30:00 19,6 °C 1,3 °C 0,6 °C 1,3 °C 35,00% 89,00% 1026,4 hPa 0,0 l/m² 6,4 km/h (2 Bft) W-SW 247 ° 0 min 0,000 mm 0,0 UV-I 0 W/m² -0,3 °C -0,7 °C 14,5 km/h (3 Bft)
13.04.21 08:00:00 21,2 °C 1,7 °C 1,3 °C 1,7 °C 35,00% 89,00% 1026,6 hPa 0,0 l/m² 9,7 km/h (2 Bft) W-SW 247 ° 0 min 0,000 mm 0,1 UV-I 0 W/m² 0,1 °C -1,2 °C 19,3 km/h (3 Bft)
13.04.21 08:30:00 22,4 °C 2,4 °C 1,7 °C 2,4 °C 32,00% 88,00% 1026,7 hPa 0,0 l/m² 11,3 km/h (2 Bft) W-SW 247 ° 30 min 0,000 mm 0,7 UV-I 128 W/m² 0,6 °C -0,7 °C 20,9 km/h (4 Bft)
13.04.21 09:00:00 23,1 °C 2,8 °C 2,4 °C 2,8 °C 31,00% 87,00% 1027,0 hPa 0,0 l/m² 11,3 km/h (2 Bft) W-SW 247 ° 30 min 0,076 mm 0,9 UV-I 200 W/m² 0,9 °C -0,3 °C 24,1 km/h (4 Bft)
13.04.21 09:30:00 23,7 °C 3,6 °C 2,8 °C 3,7 °C 31,00% 84,00% 1027,2 hPa 0,0 l/m² 12,9 km/h (3 Bft) W-SW 247 ° 30 min 0,000 mm 1,3 UV-I 240 W/m² 1,2 °C 0,4 °C 24,1 km/h (4 Bft)
13.04.21 10:00:00 24,2 °C 4,4 °C 3,6 °C 4,4 °C 30,00% 84,00% 1027,2 hPa 0,0 l/m² 12,9 km/h (3 Bft) W-SW 247 ° 30 min 0,127 mm 1,7 UV-I 418 W/m² 1,9 °C 1,4 °C 27,4 km/h (5 Bft)
13.04.21 10:30:00 24,6 °C 5,5 °C 4,4 °C 5,5 °C 29,00% 80,00% 1027,5 hPa 0,0 l/m² 11,3 km/h (2 Bft) W-SW 247 ° 30 min 0,000 mm 1,8 UV-I 421 W/m² 2,3 °C 3,0 °C 24,1 km/h (4 Bft)
13.04.21 11:00:00 25,0 °C 6,4 °C 5,3 °C 6,4 °C 29,00% 77,00% 1027,2 hPa 0,0 l/m² 12,9 km/h (3 Bft) W-SW 247 ° 30 min 0,203 mm 2,4 UV-I 536 W/m² 2,7 °C 3,8 °C 27,4 km/h (5 Bft)
13.04.21 11:30:00 25,4 °C 7,3 °C 6,1 °C 7,3 °C 29,00% 70,00% 1027,4 hPa 0,0 l/m² 16,1 km/h (3 Bft) W 270 ° 30 min 0,000 mm 2,6 UV-I 542 W/m² 2,2 °C 4,4 °C 29,0 km/h (5 Bft)
13.04.21 12:00:00 25,8 °C 7,6 °C 6,8 °C 8,2 °C 28,00% 67,00% 1027,2 hPa 0,0 l/m² 14,5 km/h (3 Bft) W 270 ° 30 min 0,254 mm 2,7 UV-I 421 W/m² 1,9 °C 5,0 °C 30,6 km/h (5 Bft)
13.04.21 12:30:00 26,2 °C 7,7 °C 7,1 °C 7,9 °C 28,00% 71,00% 1027,3 hPa 0,0 l/m² 16,1 km/h (3 Bft) W 270 ° 30 min 0,000 mm 2,6 UV-I 366 W/m² 2,8 °C 4,9 °C 33,8 km/h (5 Bft)
13.04.21 13:00:00 26,4 °C 8,3 °C 6,7 °C 8,7 °C 27,00% 59,00% 1027,1 hPa 0,0 l/m² 8,0 km/h (2 Bft) W 270 ° 30 min 0,229 mm 3,1 UV-I 497 W/m² 0,8 °C 7,0 °C 25,7 km/h (4 Bft)
13.04.21 13:30:00 26,6 °C 7,9 °C 7,7 °C 9,1 °C 27,00% 65,00% 1027,1 hPa 0,0 l/m² 12,9 km/h (3 Bft) W 270 ° 30 min 0,000 mm 3,1 UV-I 580 W/m² 1,7 °C 5,6 °C 32,2 km/h (5 Bft)
13.04.21 14:00:00 26,6 °C 7,2 °C 6,3 °C 9,2 °C 27,00% 67,00% 1027,4 hPa 0,0 l/m² 4,8 km/h (1 Bft) W-NW 292 ° 30 min 0,229 mm 2,0 UV-I 251 W/m² 1,5 °C 6,7 °C 30,6 km/h (5 Bft)
13.04.21 14:30:00 26,8 °C 9,1 °C 7,2 °C 9,2 °C 27,00% 59,00% 1027,4 hPa 0,0 l/m² 4,8 km/h (1 Bft) W 270 ° 30 min 0,000 mm 3,2 UV-I 606 W/m² 1,5 °C 8,8 °C 19,3 km/h (3 Bft)
13.04.21 15:00:00 27,0 °C 6,5 °C 6,5 °C 9,6 °C 27,00% 69,00% 1027,6 hPa 0,0 l/m² 11,3 km/h (2 Bft) NW 315 ° 30 min 0,279 mm 2,8 UV-I 524 W/m² 1,2 °C 4,2 °C 25,7 km/h (4 Bft)
13.04.21 15:30:00 27,1 °C 6,6 °C 5,8 °C 6,6 °C 27,00% 71,00% 1027,4 hPa 0,0 l/m² 8,0 km/h (2 Bft) NW 315 ° 30 min 0,000 mm 1,7 UV-I 209 W/m² 1,7 °C 5,0 °C 25,7 km/h (4 Bft)
13.04.21 16:00:00 27,1 °C 8,6 °C 6,3 °C 8,8 °C 27,00% 59,00% 1026,7 hPa 0,0 l/m² 11,3 km/h (2 Bft) W 270 ° 30 min 0,178 mm 2,4 UV-I 522 W/m² 1,0 °C 6,7 °C 25,7 km/h (4 Bft)
13.04.21 16:30:00 27,1 °C 9,0 °C 8,6 °C 9,1 °C 26,00% 58,00% 1026,8 hPa 0,0 l/m² 16,1 km/h (3 Bft) W 270 ° 30 min 0,000 mm 2,2 UV-I 543 W/m² 1,2 °C 6,5 °C 37,0 km/h (5 Bft)
13.04.21 17:00:00 26,8 °C 7,4 °C 7,3 °C 8,9 °C 26,00% 64,00% 1027,0 hPa 0,0 l/m² 16,1 km/h (3 Bft) W 270 ° 30 min 0,203 mm 1,0 UV-I 170 W/m² 1,0 °C 4,6 °C 32,2 km/h (5 Bft)
13.04.21 17:30:00 26,7 °C 7,1 °C 7,1 °C 8,5 °C 27,00% 67,00% 1027,1 hPa 0,0 l/m² 11,3 km/h (2 Bft) W 270 ° 30 min 0,000 mm 0,9 UV-I 276 W/m² 1,4 °C 4,9 °C 29,0 km/h (5 Bft)
13.04.21 18:00:00 26,6 °C 7,0 °C 6,7 °C 7,2 °C 26,00% 64,00% 1027,0 hPa 0,0 l/m² 4,8 km/h (1 Bft) W 270 ° 30 min 0,127 mm 0,9 UV-I 226 W/m² 0,7 °C 6,4 °C 19,3 km/h (3 Bft)
13.04.21 18:30:00 26,5 °C 5,7 °C 5,2 °C 7,0 °C 27,00% 77,00% 1027,1 hPa 0,0 l/m² 6,4 km/h (2 Bft) NW 315 ° 0 min 0,000 mm 0,0 UV-I 91 W/m² 2,0 °C 4,4 °C 22,5 km/h (4 Bft)
13.04.21 19:00:00 26,3 °C 6,4 °C 5,7 °C 6,5 °C 27,00% 65,00% 1027,2 hPa 0,0 l/m² 4,8 km/h (1 Bft) W-NW 292 ° 30 min 0,051 mm 0,0 UV-I 117 W/m² 0,3 °C 5,7 °C 20,9 km/h (4 Bft)
13.04.21 19:30:00 26,2 °C 5,2 °C 5,2 °C 6,4 °C 27,00% 68,00% 1027,2 hPa 0,0 l/m² 3,2 km/h (1 Bft) W-NW 292 ° 0 min 0,000 mm 0,0 UV-I 49 W/m² -0,2 °C 5,2 °C 14,5 km/h (3 Bft)
13.04.21 20:00:00 27,7 °C 5,1 °C 4,9 °C 5,3 °C 26,00% 70,00% 1027,3 hPa 0,0 l/m² 8,0 km/h (2 Bft) W 270 ° 0 min 0,025 mm 0,0 UV-I 15 W/m² 0,1 °C 3,3 °C 24,1 km/h (4 Bft)
13.04.21 20:30:00 26,1 °C 4,3 °C 4,3 °C 5,2 °C 26,00% 72,00% 1027,6 hPa 0,0 l/m² 3,2 km/h (1 Bft) W 270 ° 0 min 0,000 mm 0,0 UV-I 3 W/m² -0,3 °C 4,3 °C 16,1 km/h (3 Bft)
13.04.21 21:00:00 25,4 °C 4,1 °C 4,1 °C 4,3 °C 26,00% 74,00% 1027,7 hPa 0,0 l/m² 6,4 km/h (2 Bft) W 270 ° 0 min 0,025 mm 0,0 UV-I 0 W/m² -0,1 °C 2,6 °C 16,1 km/h (3 Bft)
13.04.21 21:30:00 25,2 °C 3,9 °C 3,8 °C 4,2 °C 26,00% 74,00% 1027,7 hPa 0,0 l/m² 9,7 km/h (2 Bft) W 270 ° 0 min 0,000 mm 0,0 UV-I 0 W/m² -0,3 °C 1,4 °C 16,1 km/h (3 Bft)
13.04.21 22:00:00 24,9 °C 3,5 °C 3,4 °C 3,9 °C 27,00% 74,00% 1028,0 hPa 0,0 l/m² 8,0 km/h (2 Bft) W 270 ° 0 min 0,025 mm 0,0 UV-I 0 W/m² -0,7 °C 1,4 °C 17,7 km/h (3 Bft)
13.04.21 22:30:00 24,6 °C 3,3 °C 3,3 °C 3,8 °C 28,00% 74,00% 1028,0 hPa 0,0 l/m² 6,4 km/h (2 Bft) W 270 ° 0 min 0,000 mm 0,0 UV-I 0 W/m² -0,9 °C 1,6 °C 17,7 km/h (3 Bft)
13.04.21 23:00:00 24,3 °C 3,0 °C 2,9 °C 3,3 °C 28,00% 78,00% 1027,8 hPa 0,0 l/m² 8,0 km/h (2 Bft) W 270 ° 0 min 0,025 mm 0,0 UV-I 0 W/m² -0,5 °C 0,8 °C 14,5 km/h (3 Bft)
13.04.21 23:30:00 24,1 °C 2,9 °C 2,8 °C 3,2 °C 28,00% 78,00% 1028,0 hPa 0,0 l/m² 8,0 km/h (2 Bft) W 270 ° 0 min 0,000 mm 0,0 UV-I 0 W/m² -0,5 °C 0,7 °C 14,5 km/h (3 Bft)
14.04.21 00:00:00 24,1 °C 2,8 °C 2,7 °C 2,9 °C 29,00% 79,00% 1027,8 hPa 0,0 l/m² 8,0 km/h (2 Bft) W 270 ° 0 min 0,025 mm 0,0 UV-I 0 W/m² -0,5 °C 0,6 °C 17,7 km/h (3 Bft)
_ Min-Zeit 07:00:00 06:00:00 06:00:00 07:00:00 21:30:00 16:30:00 05:30:00 - 02:30:00 - - - - - - 03:30:00 08:00:00 01:00:00
Minimum _ 18,7 °C 0,4 °C 0,4 °C 0,6 °C 26,00% 58,00% 1025,6 hPa - 1,6 km/h (1 Bft) - - - - - - -1,2 °C -1,2 °C 6,4 km/h (2 Bft)
_ Max-Zeit 20:00:00 15:00:00 16:30:00 15:00:00 08:00:00 07:00:00 23:30:00 00:00:00 17:00:00 - - 19:00:00 15:00:00 14:30:00 14:30:00 12:30:00 14:30:00 16:30:00
Maximum _ 27,7 °C 9,6 °C 8,6 °C 9,6 °C 35,00% 90,00% 1028,0 hPa 0,0 l/m² 16,1 km/h - - 30 min 0,279 mm 3,2 UV-I 606 W/m² 2,8 °C 8,8 °C 37,0 km/h
W (3 Bft) W (5 Bft)
Durchschnitt _ 23,9 °C 4,1 °C 3,7 °C 4,6 °C 30,00% 77,00% 1026,9 hPa #0,0 l/m² 7,8 km/h (2 Bft) W - #0 min. #0,025 mm 0,0 UV-I 0 W/m² 0,3 °C 2,5 °C 19,6 km/h (3 Bft)

                                                                                                                                                                            _________________________________________________________________________________________________________________________________________________________________________

 Anomalie Daten

ausgewähltes Produkt zur Leistung: Zeitreihen und Trends
 
ausgewähltes Produkt zur Leistung:

 

 

ausgewähltes Produkt zur Leistung: Zeitreihen und Trends

Absolut Daten

ausgewähltes Produkt zur Leistung: Zeitreihen und Trends
ausgewähltes Produkt zur Leistung: Zeitreihen und Trends

 

ausgewähltes Produkt zur Leistung: Zeitreihen und Trends

 

2009 - 2021

Unwetterwarnungen

 

  Radarbild           

aktueller Radarfilm Deutschland

  Europa-Meteoalarm